Terminal Aerodrome Forecast
Issued by NWS Green Bay, WI

Home | Current Version | Previous Version | Graphics & Text | Print | Product List | Glossary On
Versions: 1 2 3 4 5 6 7 8 9 10 11 12 13 14 15 16 17 18 19 20 21 22 23 24 25 26 27 28 29 30 31 32 33 34 35 36 37 38 39 40 41 42 43 44 45 46 47
000
FTUS43 KGRB 161633 AAB
TAFGRB
TAF AMD
KGRB 161633Z 1617/1712 33009KT P6SM BKN028
     FM162200 36008KT P6SM SCT030 BKN200
     FM170300 10005KT P6SM SCT070 BKN100
     FM170800 13009KT P6SM SCT020 OVC030=

USA.gov is the U.S. government's official web portal to all federal, state and local government web resources and services.